Weather History for KNFE - January, 2014

Change the Weather History Date:

Wednesday, January 1, 2014

  Actual Average (KORF) Record (KORF)
Temperature  
Mean Temperature 44 °F 41 °F  
Max Temperature 55 °F 49 °F 75 °F (1952)
Min Temperature 32 °F 33 °F 12 °F (1918)
Degree Days  
Heating Degree Days 22 24  
Month to date heating degree days 24  
Since 1 July heating degree days 1203  
Cooling Degree Days 0 0  
Month to date cooling degree days 0  
Year to date cooling degree days 0  
Moisture  
Dew Point 33 °F    
Average Humidity 69    
Maximum Humidity 82    
Minimum Humidity 47    
Precipitation  
Precipitation 0.00 in 0.10 in 2.34 in (1987)
Month to date precipitation 0.10  
Year to date precipitation 0.10  
Snow  
Snow 0.00 in 0.10 in 1.10 in (1900)
Month to date snowfall 0.1  
Since 1 July snowfall 1.3  
Snow Depth -    
Sea Level Pressure  
Sea Level Pressure 30.32 in    
Wind  
Wind Speed 1 mph (SSE)    
Max Wind Speed 10 mph    
Max Gust Speed -    
Visibility 10 miles    
Events      
T = Trace of Precipitation, MM = Missing Value Source: NWS Daily Summary

Daily Weather History Graph

Daily Weather History Graph

Search for Another Location

Airport or City:

Trip Planner

Search our weather history database for the weather conditions in past years. The results will help you decide how hot, cold, wet, or windy it might be!

Date:

Astronomy

Jan. 01, 2014 Rise Set
Actual Time 7:17 AM EST 4:59 PM EST
Civil Twilight 6:48 AM EST 5:28 PM EST
Nautical Twilight 6:15 AM EST 6:00 PM EST
Astronomical Twilight 5:44 AM EST 6:31 PM EST
Moon 7:07 AM EST (1/1) 5:39 PM EST (1/1)
Length of Visible Light 10h 39m
Length of Day
9h 42m
New Moon, 0% of the Moon is Illuminated
Jan 1
New Moon
Jan 7
First Quarter
Jan 15
Full
Jan 24
Last Quarter
Jan 30
New

Hourly Weather History & Observations

Time (EST) Temp. Dew Point Humidity Pressure Visibility Wind Dir Wind Speed Gust Speed Precip Events Conditions
12:56 AM 34.0 °F 27.0 °F 75% 30.35 in 10.0 mi Calm Calm - N/A   Clear
1:56 AM 33.1 °F 26.1 °F 75% 30.37 in 10.0 mi Calm Calm - N/A   Clear
2:56 AM 32.0 °F 26.1 °F 79% 30.38 in 10.0 mi Calm Calm - N/A   Clear
3:56 AM 33.1 °F 28.0 °F 82% 30.38 in 10.0 mi Calm Calm - N/A   Clear
4:56 AM 33.1 °F 26.1 °F 75% 30.39 in 10.0 mi Calm Calm - N/A   Clear
5:56 AM 33.1 °F 27.0 °F 78% 30.40 in 10.0 mi Calm Calm - N/A   Clear
6:56 AM 33.1 °F 28.0 °F 82% 30.40 in 10.0 mi Calm Calm - N/A   Clear
7:56 AM 35.1 °F 28.9 °F 78% 30.42 in 10.0 mi Calm Calm - N/A   Clear
8:56 AM 37.0 °F 30.9 °F 79% 30.44 in 10.0 mi Calm Calm - N/A   Clear
9:56 AM 44.1 °F 36.0 °F 73% 30.44 in 10.0 mi Calm Calm - N/A   Clear
10:56 AM 51.1 °F 37.9 °F 61% 30.42 in 10.0 mi ESE 6.9 mph - N/A   Clear
11:56 AM 54.0 °F 36.0 °F 51% 30.38 in 10.0 mi ESE 10.4 mph - N/A   Clear
12:56 PM 55.0 °F 39.0 °F 55% 30.35 in 10.0 mi Variable 5.8 mph - N/A   Clear
1:56 PM 55.0 °F 36.0 °F 49% 30.33 in 10.0 mi South 5.8 mph - N/A   Clear
2:56 PM 54.0 °F 34.0 °F 47% 30.31 in 10.0 mi South 3.5 mph - N/A   Clear
3:56 PM 52.0 °F 32.0 °F 47% 30.31 in 10.0 mi South 3.5 mph - N/A   Clear
4:56 PM 46.9 °F 34.0 °F 61% 30.28 in 10.0 mi Calm Calm - N/A   Clear
5:56 PM 44.1 °F 32.0 °F 63% 30.27 in 10.0 mi Calm Calm - N/A   Clear
6:56 PM 43.0 °F 34.0 °F 71% 30.27 in 10.0 mi Calm Calm - N/A   Clear
7:56 PM 42.1 °F 34.0 °F 73% 30.25 in 10.0 mi Calm Calm - N/A   Scattered Clouds
8:56 PM 43.0 °F 35.1 °F 74% 30.24 in 10.0 mi Calm Calm - N/A   Overcast
9:56 PM 44.1 °F 37.0 °F 76% 30.22 in 10.0 mi Calm Calm - N/A   Overcast
10:56 PM 45.0 °F 37.0 °F 74% 30.19 in 10.0 mi Calm Calm - N/A   Overcast
11:34 PM 46.0 °F 37.9 °F 73% 30.17 in 10.0 mi Calm Calm - N/A   Overcast
11:56 PM 46.0 °F 37.9 °F 73% 30.16 in 10.0 mi Calm Calm - N/A   Overcast